Home   Weather   Guelph   Past weeks
Flag for Canada

Past Weather in Guelph, Ontario, Canada — Yesterday and Last 2 Weeks

Now
41 °F

Overcast.


Feels Like: 33 °F
Forecast: 55 / 36 °F
Wind: 15 mph from Northwest

Location: Waterloo Well

Current Time: Apr 24, 2019 at 2:40:13 am

Latest Report: Apr 24, 2019 at 2:00 am


Visibility: 9 mi

Pressure: 29.88 "Hg

Humidity: 81%

Dew Point: 36 °F

Location of GuelphLocation

Past Weather in Guelph — Graph

°F

Guelph Temperature Yesterday

Maximum temperature yesterday: 61 °F (at 12:00 pm)
Minimum temperature yesterday: 41 °F (at 8:00 pm)
Average temperature yesterday: 50 °F

High & Low Weather Summary for the Past Weeks

 TemperatureHumidityPressure
High68 °F (Apr 18, 5:10 pm)100% (Apr 9, 1:00 am)30.27 "Hg (Apr 9, 1:00 am)
Low27 °F (Apr 16, 5:00 am)33% (Apr 13, 3:00 pm)29.34 "Hg (Apr 15, 12:00 am)
Average43 °F82%29.86 "Hg
* Reported Apr 9 1:00 am — Apr 24 1:00 am, Guelph. Weather by CustomWeather, © 2019

Note: Actual official high and low records may vary slightly from our data, if they occured in-between our weather recording intervals... More about our weather records

Advertising

Guelph Weather History for the Previous 24 Hours

Scroll right to see more
 ConditionsComfort  
Time TempWeatherWind HumidityBarometerVisibility
1:00 am
Wed, Apr 24
41 °FMostly cloudy.20 mph81%29.88 "Hg9 mi
12:12 am41 °FMostly cloudy.17 mph81%29.87 "Hg9 mi
11:39 pm
Tue, Apr 23
41 °FMostly cloudy.17 mph81%29.87 "Hg9 mi
11:07 pm41 °FMostly cloudy.20 mph81%29.86 "Hg9 mi
10:00 pm41 °FOvercast.17 mph87%29.86 "Hg9 mi
9:00 pm41 °FOvercast.17 mph87%29.85 "Hg9 mi
8:00 pm41 °FMostly cloudy.21 mph87%29.83 "Hg9 mi
7:00 pm43 °FOvercast.24 mph87%29.81 "Hg9 mi
6:38 pm43 °FOvercast.20 mph87%29.81 "Hg9 mi
6:20 pm43 °FFog.22 mph93%29.80 "Hg6 mi
5:56 pm45 °FFog.18 mph93%29.78 "Hg5 mi
5:00 pm46 °FMostly cloudy.26 mph87%29.75 "Hg9 mi
4:00 pm52 °FOvercast.22 mph88%29.72 "Hg9 mi
3:20 pm59 °FCloudy.25 mph82%29.69 "Hg9 mi
3:07 pm59 °FMostly cloudy.14 mph77%29.69 "Hg9 mi
3:02 pm59 °FMostly cloudy.16 mph77%29.68 "Hg9 mi
2:39 pm59 °FLight rain. Mostly cloudy.16 mph77%29.69 "Hg9 mi
2:00 pm59 °FMostly cloudy.15 mph77%29.70 "Hg9 mi
1:07 pm59 °FOvercast.18 mph77%29.71 "Hg9 mi
12:44 pm59 °FThunderstorms. Mostly cloudy.14 mph77%29.73 "Hg9 mi
12:40 pm59 °FThundershowers. Cloudy.15 mph77%29.73 "Hg9 mi
12:00 pm61 °FMostly cloudy.17 mph68%29.74 "Hg9 mi
11:00 am55 °FMostly cloudy.14 mph82%29.79 "Hg9 mi
10:33 am54 °FMostly cloudy.9 mph88%29.81 "Hg9 mi
10:01 am54 °FLight rain. Overcast.6 mph77%29.86 "Hg9 mi
9:42 am54 °FLight rain. Overcast.7 mph77%29.85 "Hg9 mi
9:11 am52 °FLight rain. Mostly cloudy.12 mph82%29.85 "Hg9 mi
9:00 am52 °FMostly cloudy.9 mph82%29.86 "Hg9 mi
8:00 am50 °FMostly cloudy.9 mph88%29.90 "Hg9 mi
7:00 am48 °FMostly cloudy.7 mph87%29.91 "Hg7 mi
6:00 am46 °FClear.5 mph87%29.95 "Hg8 mi
5:00 am48 °FPassing clouds.7 mph87%29.97 "Hg9 mi
4:00 am50 °FPartly cloudy.9 mph88%29.98 "Hg9 mi
3:00 am52 °FOvercast.8 mph82%30.00 "Hg9 mi
2:00 am46 °FPassing clouds.7 mph87%30.04 "Hg9 mi
Weather by CustomWeather, © 2019

See weather overview